GW3296 Weather Reports


Display with metric or nautical units.
time (UTC)temp
F
wind
direction
speed
MPH
gust
MPH
rain 1hr
in
rain 24hr
in
rain mn
in
humidity
%
barometer
mb
20260504081824 59 171 3.0 6.0 0.00 0.00 0.00 78 1008.0
20260504081321 59 159 2.0 3.0 0.00 0.00 0.00 77 1008.2
20260504080816 59 174 2.0 3.0 0.00 0.00 0.00 78 1008.2
20260504080314 59 174 1.0 3.0 0.00 0.00 0.00 78 1008.1
20260504070241 58 172 1.0 1.0 0.00 0.00 0.00 77 1008.5
20260504060202 60 143 3.0 3.0 0.00 0.00 0.00 73 1009.4
20260504050629 62 152 2.0 3.0 0.00 0.00 0.00 68 1009.1
20260504050126 62 152 2.0 2.0 0.00 0.00 0.00 68 1009.3
20260504045623 62 181 0.0 1.0 0.00 0.00 0.00 68 1008.9
20260504045118 62 166 1.0 1.0 0.00 0.00 0.00 68 1008.9
20260504044616 62 155 1.0 2.0 0.00 0.00 0.00 67 1009.2
20260504044113 62 157 1.0 2.0 0.00 0.00 0.00 67 1009.2
20260504043610 62 156 2.0 2.0 0.00 0.00 0.00 67 1009.4
20260504043107 62 163 0.0 0.0 0.00 0.00 0.00 68 1009.5
20260504042604 63 154 1.0 2.0 0.00 0.00 0.00 66 1009.7
20260504042101 63 167 0.0 1.0 0.00 0.00 0.00 66 1009.9
20260504041557 63 157 1.0 2.0 0.00 0.00 0.00 65 1010.0
20260504041053 63 154 2.0 2.0 0.00 0.00 0.00 65 1010.2
20260504040551 63 175 1.0 1.0 0.00 0.00 0.00 65 1010.0
20260504040047 63 203 1.0 1.0 0.00 0.00 0.00 66 1009.8
20260504035544 64 155 2.0 3.0 0.00 0.00 0.00 65 1009.9
20260504035040 63 151 2.0 3.0 0.00 0.00 0.00 66 1010.1
20260504034538 63 162 1.0 2.0 0.00 0.00 0.00 67 1010.2
20260504034035 63 181 0.0 1.0 0.00 0.00 0.00 68 1010.3
20260504033533 64 216 0.0 1.0 0.00 0.00 0.00 68 1010.0
20260504033030 63 157 1.0 1.0 0.00 0.00 0.00 67 1010.2
20260504032527 63 185 0.0 0.0 0.00 0.00 0.00 68 1010.1
20260504032024 64 196 0.0 1.0 0.00 0.00 0.00 68 1010.0
20260504031521 63 163 1.0 2.0 0.00 0.00 0.00 67 1010.0
20260504031017 63 188 0.0 1.0 0.00 0.00 0.00 71 1010.3
20260504030515 62 162 0.0 2.0 0.00 0.00 0.00 69 1010.4
20260504030010 62 76 1.0 2.0 0.00 0.00 0.00 71 1010.5
20260504025508 62 212 1.0 1.0 0.00 0.00 0.00 72 1010.5
20260504025004 63 173 0.0 1.0 0.00 0.00 0.00 71 1010.2
20260504024502 63 136 0.0 1.0 0.00 0.00 0.00 70 1010.4
20260504023959 63 212 0.0 1.0 0.00 0.00 0.00 70 1010.5
20260504023455 63 172 0.0 0.0 0.00 0.00 0.00 69 1010.2
20260504022950 63 169 1.0 1.0 0.00 0.00 0.00 69 1010.1
20260504022447 63 161 1.0 1.0 0.00 0.00 0.00 69 1009.9
20260504021944 63 155 0.0 0.0 0.00 0.00 0.00 69 1010.1
20260504021441 63 152 0.0 1.0 0.00 0.00 0.00 69 1010.2
20260504020938 63 169 0.0 0.0 0.00 0.00 0.00 68 1010.1
20260504020434 64 166 0.0 1.0 0.00 0.00 0.00 68 1010.1
20260504015931 64 183 0.0 0.0 0.00 0.00 0.00 67 1010.2
20260504015427 64 183 0.0 1.0 0.00 0.00 0.00 67 1010.2
20260504014923 64 252 1.0 2.0 0.00 0.00 0.00 67 1010.3
20260504014420 65 117 1.0 1.0 0.00 0.00 0.00 65 1009.9
20260504013916 65 171 1.0 1.0 0.00 0.00 0.00 64 1009.8
20260504013415 65 171 1.0 1.0 0.00 0.00 0.00 64 1009.7
20260504012911 65 151 0.0 1.0 0.00 0.00 0.00 64 1009.9
20260504012409 66 147 0.0 0.0 0.00 0.00 0.00 61 1009.8
20260504011906 66 166 0.0 0.0 0.00 0.00 0.00 59 1009.6
20260504011403 67 194 0.0 0.0 0.00 0.00 0.00 58 1009.5
20260504010859 67 181 0.0 1.0 0.00 0.00 0.00 57 1009.7
20260504010354 67 171 1.0 1.0 0.00 0.00 0.00 57 1009.5
20260504005845 68 202 0.0 0.0 0.00 0.00 0.00 54 1009.7
20260504005342 68 209 0.0 0.0 0.00 0.00 0.00 53 1009.4
20260504004839 69 21 2.0 2.0 0.00 0.00 0.00 54 1009.5
20260504004337 69 194 0.0 0.0 0.00 0.00 0.00 51 1009.5
20260504003833 70 238 0.0 3.0 0.00 0.00 0.00 50 1009.6
20260504003330 70 264 3.0 3.0 0.00 0.00 0.00 49 1009.7
20260504002827 70 219 0.0 1.0 0.00 0.00 0.00 48 1009.5
20260504002324 70 231 2.0 2.0 0.00 0.00 0.00 48 1009.4
20260504001822 70 161 0.0 2.0 0.00 0.00 0.00 49 1009.4
20260504001319 71 177 1.0 2.0 0.00 0.00 0.00 48 1009.2
20260504000815 71 176 1.0 3.0 0.00 0.00 0.00 47 1009.2
20260504000312 71 261 3.0 6.0 0.00 0.00 0.00 47 1009.7
20260503235810 71 170 0.0 5.0 0.00 0.00 0.00 46 1009.5
20260503235307 72 253 3.0 7.0 0.00 0.00 0.00 46 1009.7
20260503234805 72 247 2.0 7.0 0.00 0.00 0.00 45 1009.6
20260503234303 72 239 1.0 1.0 0.00 0.00 0.00 45 1009.8
20260503233800 72 267 3.0 8.0 0.00 0.00 0.00 44 1009.9
20260503233255 72 268 2.0 6.0 0.00 0.00 0.00 44 1009.9
20260503232753 72 169 1.0 3.0 0.00 0.00 0.00 43 1009.6
20260503232250 72 177 3.0 3.0 0.00 0.00 0.00 43 1009.6
20260503231748 72 174 2.0 3.0 0.00 0.00 0.00 42 1009.7
20260503231245 72 202 1.0 8.0 0.00 0.00 0.00 41 1009.9
20260503230740 72 158 3.0 9.0 0.00 0.00 0.00 41 1009.6
20260503230238 72 156 5.0 7.0 0.00 0.00 0.00 41 1009.5
20260503225735 72 163 7.0 10.0 0.00 0.00 0.00 41 1009.3
20260503225235 73 156 3.0 9.0 0.00 0.00 0.00 40 1009.1
20260503224732 72 165 5.0 9.0 0.00 0.00 0.00 40 1009.2
20260503224230 73 169 7.0 16.0 0.00 0.00 0.00 39 1009.4
20260503223727 73 217 7.0 14.0 0.00 0.00 0.00 39 1009.7
20260503223225 73 202 2.0 10.0 0.00 0.00 0.00 40 1010.0
20260503222721 72 190 5.0 9.0 0.00 0.00 0.00 39 1010.0
20260503222219 72 206 4.0 9.0 0.00 0.00 0.00 40 1009.8
20260503221718 72 115 9.0 14.0 0.00 0.00 0.00 39 1010.0
20260503221215 72 163 8.0 13.0 0.00 0.00 0.00 39 1009.5
20260503220711 72 168 5.0 14.0 0.00 0.00 0.00 39 1009.8
20260503220208 72 152 7.0 13.0 0.00 0.00 0.00 38 1010.1
20260503215705 72 157 3.0 10.0 0.00 0.00 0.00 39 1009.8
20260503215202 73 158 7.0 10.0 0.00 0.00 0.00 39 1010.0
20260503214700 72 141 7.0 13.0 0.00 0.00 0.00 38 1010.1
20260503214155 72 162 8.0 11.0 0.00 0.00 0.00 38 1010.1
20260503213649 73 182 6.0 15.0 0.00 0.00 0.00 37 1010.4
20260503213146 73 233 6.0 15.0 0.00 0.00 0.00 37 1010.2
20260503212643 73 192 7.0 16.0 0.00 0.00 0.00 37 1010.2
20260503212140 73 177 9.0 14.0 0.00 0.00 0.00 37 1010.4
20260503211638 72 175 9.0 21.0 0.00 0.00 0.00 37 1010.6
20260503211133 72 195 7.0 9.0 0.00 0.00 0.00 37 1010.6
20260503210630 72 161 5.0 11.0 0.00 0.00 0.00 37 1010.7
20260503210127 71 186 4.0 15.0 0.00 0.00 0.00 37 1010.9
20260503205622 72 218 4.0 14.0 0.00 0.00 0.00 38 1010.9
20260503205119 71 166 7.0 13.0 0.00 0.00 0.00 37 1010.9
20260503204616 71 156 4.0 16.0 0.00 0.00 0.00 38 1010.7
20260503204113 70 160 5.0 10.0 0.00 0.00 0.00 38 1010.9
20260503203610 70 159 8.0 18.0 0.00 0.00 0.00 38 1011.2
20260503203108 69 162 9.0 15.0 0.00 0.00 0.00 38 1011.2
20260503202605 69 159 7.0 16.0 0.00 0.00 0.00 38 1011.7
20260503202103 68 159 5.0 17.0 0.00 0.00 0.00 40 1011.4
20260503201600 69 152 8.0 20.0 0.00 0.00 0.00 39 1011.6
20260503201057 68 160 8.0 13.0 0.00 0.00 0.00 40 1011.6
20260503200548 68 179 11.0 18.0 0.00 0.00 0.00 39 1011.5
20260503200044 68 154 11.0 15.0 0.00 0.00 0.00 39 1011.8
20260503195542 68 168 10.0 15.0 0.00 0.00 0.00 40 1011.7
20260503195038 67 125 10.0 16.0 0.00 0.00 0.00 40 1011.9
20260503194536 67 157 11.0 18.0 0.00 0.00 0.00 41 1012.1
20260503194035 67 188 7.0 16.0 0.00 0.00 0.00 40 1012.1
20260503193533 67 189 5.0 13.0 0.00 0.00 0.00 42 1012.1
20260503193028 66 160 6.0 16.0 0.00 0.00 0.00 43 1011.8
20260503192524 67 157 6.0 20.0 0.00 0.00 0.00 43 1011.9
20260503192020 67 182 12.0 17.0 0.00 0.00 0.00 42 1012.2
20260503191517 66 181 7.0 16.0 0.00 0.00 0.00 43 1012.6
20260503191014 66 201 10.0 14.0 0.00 0.00 0.00 42 1012.7
20260503190510 66 221 10.0 14.0 0.00 0.00 0.00 43 1012.9
20260503190008 67 158 10.0 18.0 0.00 0.00 0.00 42 1012.7
20260503185503 67 158 10.0 16.0 0.00 0.00 0.00 41 1012.5
20260503184958 66 176 13.0 21.0 0.00 0.00 0.00 42 1012.6
20260503184455 66 159 11.0 20.0 0.00 0.00 0.00 43 1012.5
20260503183951 66 154 12.0 18.0 0.00 0.00 0.00 42 1012.7
20260503183448 65 150 13.0 16.0 0.00 0.00 0.00 44 1012.8
20260503182944 65 160 6.0 11.0 0.00 0.00 0.00 43 1012.8
20260503182443 66 120 7.0 14.0 0.00 0.00 0.00 45 1012.7
20260503181941 65 172 10.0 20.0 0.00 0.00 0.00 46 1013.1
20260503181438 64 139 11.0 16.0 0.00 0.00 0.00 45 1013.5
20260503180933 64 181 11.0 18.0 0.00 0.00 0.00 45 1013.7
20260503180432 64 171 5.0 14.0 0.00 0.00 0.00 47 1013.7
20260503175928 63 127 9.0 20.0 0.00 0.00 0.00 45 1014.0
20260503175427 64 178 4.0 13.0 0.00 0.00 0.00 45 1014.1
20260503174922 64 202 11.0 22.0 0.00 0.00 0.00 44 1014.2
20260503174421 64 174 14.0 26.0 0.00 0.00 0.00 46 1014.1
20260503173920 63 168 8.0 17.0 0.00 0.00 0.00 46 1014.0
20260503173417 62 129 11.0 25.0 0.00 0.00 0.00 47 1014.1
20260503172914 62 164 9.0 17.0 0.00 0.00 0.00 48 1014.3
20260503172411 64 148 12.0 20.0 0.00 0.00 0.00 45 1014.9
20260503171907 64 184 8.0 15.0 0.00 0.00 0.00 45 1015.1
20260503171404 64 156 7.0 20.0 0.00 0.00 0.00 46 1015.4
20260503170902 63 182 13.0 18.0 0.00 0.00 0.00 47 1015.4
20260503170358 63 185 14.0 18.0 0.00 0.00 0.00 48 1015.8
20260503150750 58 163 5.0 9.0 0.00 0.00 0.00 55 1017.5
20260503150246 58 169 6.0 15.0 0.00 0.00 0.00 54 1017.7
20260503140211 55 167 5.0 7.0 0.00 0.00 0.00 62 1018.3
20260503131140 49 153 4.0 10.0 0.00 0.00 0.00 75 1018.3
20260503130638 49 164 7.0 11.0 0.00 0.00 0.00 76 1018.5
20260503130135 48 166 5.0 9.0 0.00 0.00 0.00 76 1018.4
20260503110527 44 163 3.0 5.0 0.00 0.00 0.00 80 1017.9
20260503090414 44 146 3.0 3.0 0.00 0.00 0.00 78 1019.0